PDA5500 UKBB-UKLL

Flight info

Callsign PDA5500
Flight time 0h 56m
Altitude 26000
Route KAFEL P27 GORKU
Aircraft B738/M-SDE2E3FGHIRWXY/LB1

Departure

Time 2026-04-29 17:08
Airport Boryspil International Airport (UKBB)

Arrival

Time 2026-04-29 18:05
Airport Lviv International Airport (UKLL)
Time Latitude Longitude Altitude Speed Heading
2026-04-29 16:37 50.33417 30.89591 417 ft 0 kts 184°
2026-04-29 17:02 50.33384 30.89589 417 ft 7 kts 181°
2026-04-29 17:02 50.33342 30.89628 418 ft 6 kts 106°
2026-04-29 17:03 50.33338 30.89701 420 ft 8 kts 93°
2026-04-29 17:03 50.33333 30.89827 421 ft 14 kts 93°
2026-04-29 17:03 50.33326 30.90016 419 ft 18 kts 93°
2026-04-29 17:03 50.33249 30.90121 418 ft 18 kts 184°
2026-04-29 17:04 50.33110 30.90107 414 ft 22 kts 183°
2026-04-29 17:04 50.32943 30.90095 409 ft 25 kts 183°
2026-04-29 17:04 50.32770 30.90082 410 ft 24 kts 182°
2026-04-29 17:04 50.32608 30.90070 412 ft 19 kts 183°
2026-04-29 17:05 50.32495 30.90078 412 ft 11 kts 153°
2026-04-29 17:05 50.32484 30.90088 412 ft 0 kts 144°
2026-04-29 17:06 50.32481 30.90092 412 ft 3 kts 142°
2026-04-29 17:06 50.32445 30.90170 413 ft 12 kts 108°
2026-04-29 17:06 50.32456 30.90297 414 ft 12 kts 57°
2026-04-29 17:06 50.32529 30.90378 412 ft 13 kts 19°
2026-04-29 17:07 50.32625 30.90396 411 ft 11 kts
2026-04-29 17:07 50.32635 30.90396 410 ft 0 kts
2026-04-29 17:07 50.32636 30.90396 410 ft 2 kts
2026-04-29 17:07 50.32856 30.90411 411 ft 68 kts
2026-04-29 17:08 50.33559 30.90465 418 ft 133 kts
2026-04-29 17:08 50.34653 30.90538 558 ft 172 kts
2026-04-29 17:08 50.35804 30.90609 1411 ft 168 kts
2026-04-29 17:08 50.36965 30.90725 2169 ft 170 kts
2026-04-29 17:09 50.38168 30.90889 2698 ft 183 kts
2026-04-29 17:09 50.39497 30.91029 3230 ft 198 kts
2026-04-29 17:09 50.40889 30.91085 3742 ft 213 kts
2026-04-29 17:09 50.42436 30.91113 4317 ft 228 kts
2026-04-29 17:10 50.44056 30.91219 4935 ft 241 kts
2026-04-29 17:10 50.45746 30.91353 5628 ft 250 kts
2026-04-29 17:10 50.47499 30.91480 6423 ft 255 kts
2026-04-29 17:10 50.49256 30.91593 7218 ft 259 kts
2026-04-29 17:11 50.51074 30.91676 8020 ft 262 kts 357°
2026-04-29 17:11 50.52811 30.91016 8796 ft 265 kts 334°
2026-04-29 17:11 50.54300 30.89304 9576 ft 270 kts 311°
2026-04-29 17:11 50.55146 30.86706 10308 ft 277 kts 285°
2026-04-29 17:12 50.55397 30.83616 10798 ft 293 kts 276°
2026-04-29 17:12 50.55497 30.80337 11275 ft 307 kts 274°
2026-04-29 17:12 50.55590 30.76908 11722 ft 322 kts 275°
2026-04-29 17:12 50.55625 30.75753 11914 ft 326 kts 275°
2026-04-29 17:13 50.55835 30.69759 13153 ft 335 kts 275°
2026-04-29 17:13 50.55978 30.66077 13956 ft 339 kts 276°
2026-04-29 17:13 50.56123 30.62379 14747 ft 344 kts 275°
2026-04-29 17:13 50.56268 30.58652 15503 ft 349 kts 276°
2026-04-29 17:14 50.56418 30.54806 16288 ft 353 kts 276°
2026-04-29 17:14 50.56566 30.50984 17011 ft 359 kts 276°
2026-04-29 17:14 50.56719 30.47040 17705 ft 365 kts 276°
2026-04-29 17:14 50.56871 30.43086 18453 ft 368 kts 276°
2026-04-29 17:15 50.57026 30.39028 19189 ft 372 kts 276°
2026-04-29 17:15 50.57178 30.34992 19770 ft 379 kts 276°
2026-04-29 17:15 50.57337 30.30781 20403 ft 385 kts 276°
2026-04-29 17:15 50.57492 30.26582 21088 ft 388 kts 276°
2026-04-29 17:16 50.57648 30.22344 21637 ft 394 kts 276°
2026-04-29 17:16 50.57804 30.18046 22319 ft 396 kts 276°
2026-04-29 17:16 50.57960 30.13707 22787 ft 404 kts 276°
2026-04-29 17:16 50.58120 30.09233 23304 ft 410 kts 276°
2026-04-29 17:17 50.58277 30.04765 23903 ft 412 kts 276°
2026-04-29 17:17 50.58431 30.00290 24699 ft 410 kts 277°
2026-04-29 17:17 50.58579 29.95911 25395 ft 408 kts 277°
2026-04-29 17:17 50.58730 29.91430 26037 ft 406 kts 277°
2026-04-29 17:18 50.58877 29.87043 26249 ft 409 kts 277°
2026-04-29 17:18 50.59025 29.82564 26251 ft 404 kts 277°
2026-04-29 17:18 50.59168 29.78202 26255 ft 405 kts 277°
2026-04-29 17:18 50.59312 29.73763 26254 ft 404 kts 277°
2026-04-29 17:19 50.59452 29.69367 26256 ft 405 kts 277°
2026-04-29 17:19 50.59594 29.64933 26257 ft 404 kts 277°
2026-04-29 17:19 50.59732 29.60518 26257 ft 406 kts 277°
2026-04-29 17:19 50.59868 29.56138 26255 ft 406 kts 277°
2026-04-29 17:20 50.60003 29.51707 26257 ft 403 kts 277°
2026-04-29 17:20 50.60138 29.47269 26260 ft 410 kts 277°
2026-04-29 17:20 50.60271 29.42809 26260 ft 407 kts 277°
2026-04-29 17:20 50.60399 29.38419 26262 ft 407 kts 277°
2026-04-29 17:21 50.60511 29.33975 26257 ft 407 kts 274°
2026-04-29 17:21 50.60424 29.29538 26253 ft 410 kts 267°
2026-04-29 17:21 50.59915 29.25110 26252 ft 418 kts 257°
2026-04-29 17:21 50.59027 29.20717 26247 ft 418 kts 252°
2026-04-29 17:22 50.57995 29.16475 26245 ft 418 kts 250°
2026-04-29 17:22 50.56901 29.12289 26245 ft 416 kts 250°
2026-04-29 17:22 50.55778 29.08090 26248 ft 416 kts 250°
2026-04-29 17:22 50.54671 29.03947 26247 ft 416 kts 250°
2026-04-29 17:23 50.53558 28.99752 26252 ft 413 kts 250°
2026-04-29 17:23 50.52461 28.95585 26253 ft 413 kts 250°
2026-04-29 17:23 50.51372 28.91414 26255 ft 410 kts 250°
2026-04-29 17:23 50.50306 28.87314 26258 ft 407 kts 251°
2026-04-29 17:24 50.49237 28.83182 26260 ft 415 kts 251°
2026-04-29 17:24 50.48154 28.78989 26255 ft 411 kts 251°
2026-04-29 17:24 50.47081 28.74839 26256 ft 410 kts 251°
2026-04-29 17:24 50.46031 28.70723 26256 ft 408 kts 252°
2026-04-29 17:25 50.45128 28.66556 26255 ft 405 kts 256°
2026-04-29 17:25 50.44384 28.62326 26256 ft 406 kts 259°
2026-04-29 17:25 50.43710 28.58014 26253 ft 407 kts 259°
2026-04-29 17:25 50.43071 28.53745 26254 ft 402 kts 260°
2026-04-29 17:26 50.42441 28.49495 26258 ft 405 kts 260°
2026-04-29 17:26 50.41791 28.45150 26258 ft 407 kts 260°
2026-04-29 17:26 50.41144 28.40893 26257 ft 404 kts 259°
2026-04-29 17:26 50.40487 28.36630 26259 ft 406 kts 259°
2026-04-29 17:27 50.39820 28.32353 26259 ft 406 kts 259°
2026-04-29 17:27 50.39141 28.28034 26259 ft 406 kts 258°
2026-04-29 17:27 50.38464 28.23762 26260 ft 406 kts 259°
2026-04-29 17:27 50.37784 28.19487 26258 ft 410 kts 259°
2026-04-29 17:28 50.37096 28.15177 26257 ft 408 kts 259°
2026-04-29 17:28 50.36411 28.10901 26257 ft 408 kts 258°
2026-04-29 17:28 50.35714 28.06566 26259 ft 405 kts 258°
2026-04-29 17:28 50.35027 28.02314 26259 ft 406 kts 258°
2026-04-29 17:29 50.34338 27.98058 26257 ft 407 kts 258°
2026-04-29 17:29 50.33651 27.93824 26259 ft 405 kts 258°
2026-04-29 17:29 50.32958 27.89570 26260 ft 406 kts 258°
2026-04-29 17:29 50.32492 27.86712 26263 ft 405 kts 258°
2026-04-29 17:30 50.31562 27.81038 26266 ft 405 kts 258°
2026-04-29 17:30 50.30842 27.76730 26269 ft 408 kts 258°
2026-04-29 17:30 50.30112 27.72442 26268 ft 409 kts 258°
2026-04-29 17:30 50.29382 27.68200 26269 ft 406 kts 258°
2026-04-29 17:31 50.28650 27.63969 26269 ft 406 kts 258°
2026-04-29 17:31 50.27906 27.59682 26269 ft 405 kts 257°
2026-04-29 17:31 50.27172 27.55467 26270 ft 406 kts 258°
2026-04-29 17:31 50.26436 27.51236 26268 ft 406 kts 257°
2026-04-29 17:32 50.25693 27.46976 26268 ft 403 kts 257°
2026-04-29 17:32 50.24956 27.42757 26269 ft 406 kts 257°
2026-04-29 17:32 50.24223 27.38564 26269 ft 406 kts 257°
2026-04-29 17:32 50.23472 27.34273 26269 ft 407 kts 257°
2026-04-29 17:33 50.22737 27.30077 26269 ft 407 kts 257°
2026-04-29 17:33 50.21989 27.25823 26268 ft 405 kts 257°
2026-04-29 17:33 50.21235 27.21551 26270 ft 406 kts 257°
2026-04-29 17:33 50.20482 27.17293 26269 ft 408 kts 257°
2026-04-29 17:34 50.19736 27.13083 26269 ft 406 kts 257°
2026-04-29 17:34 50.18985 27.08853 26270 ft 407 kts 257°
2026-04-29 17:34 50.18220 27.04596 26272 ft 407 kts 255°
2026-04-29 17:34 50.17314 27.00430 26270 ft 405 kts 251°
2026-04-29 17:35 50.15916 26.95008 26272 ft 406 kts 249°
2026-04-29 17:35 50.14056 26.88260 26273 ft 410 kts 249°
2026-04-29 17:35 50.12926 26.84179 26271 ft 407 kts 249°
2026-04-29 17:36 50.11819 26.80156 26272 ft 406 kts 249°
2026-04-29 17:36 50.10720 26.76130 26273 ft 408 kts 249°
2026-04-29 17:36 50.09629 26.72104 26274 ft 408 kts 249°
2026-04-29 17:36 50.08536 26.68059 26270 ft 408 kts 249°
2026-04-29 17:37 50.07428 26.63947 26274 ft 406 kts 249°
2026-04-29 17:37 50.06341 26.59913 26274 ft 406 kts 249°
2026-04-29 17:37 50.05253 26.55875 26278 ft 405 kts 249°
2026-04-29 17:37 50.04173 26.51872 26280 ft 405 kts 250°
2026-04-29 17:38 50.03074 26.47801 26279 ft 407 kts 250°
2026-04-29 17:38 50.01976 26.43739 26277 ft 405 kts 249°
2026-04-29 17:38 50.00872 26.39669 26281 ft 405 kts 249°
2026-04-29 17:38 49.99777 26.35636 26288 ft 407 kts 249°
2026-04-29 17:39 49.98650 26.31636 26281 ft 407 kts 247°
2026-04-29 17:39 49.97474 26.27649 26286 ft 407 kts 246°
2026-04-29 17:39 49.96273 26.23668 26282 ft 408 kts 246°
2026-04-29 17:39 49.95063 26.19687 26289 ft 409 kts 246°
2026-04-29 17:40 49.93854 26.15712 26285 ft 408 kts 247°
2026-04-29 17:40 49.92654 26.11758 26290 ft 408 kts 247°
2026-04-29 17:40 49.91444 26.07773 26279 ft 407 kts 247°
2026-04-29 17:40 49.90236 26.03781 26287 ft 408 kts 247°
2026-04-29 17:41 49.89029 25.99793 26285 ft 408 kts 247°
2026-04-29 17:41 49.87827 25.95823 26277 ft 407 kts 248°
2026-04-29 17:41 49.86639 25.91899 26283 ft 408 kts 247°
2026-04-29 17:41 49.85424 25.87892 26284 ft 408 kts 247°
2026-04-29 17:42 49.84221 25.83932 26282 ft 408 kts 247°
2026-04-29 17:42 49.83012 25.79960 26275 ft 408 kts 248°
2026-04-29 17:42 49.81802 25.75993 26278 ft 409 kts 248°
2026-04-29 17:42 49.80598 25.72047 26272 ft 408 kts 248°
2026-04-29 17:43 49.79379 25.68063 26272 ft 408 kts 248°
2026-04-29 17:43 49.78163 25.64095 26271 ft 408 kts 248°
2026-04-29 17:43 49.76949 25.60137 26277 ft 410 kts 248°
2026-04-29 17:43 49.75738 25.56200 26268 ft 407 kts 248°
2026-04-29 17:44 49.74533 25.52292 26272 ft 405 kts 248°
2026-04-29 17:44 49.73318 25.48351 26277 ft 408 kts 248°
2026-04-29 17:44 49.72092 25.44379 26270 ft 407 kts 248°
2026-04-29 17:44 49.70877 25.40455 26064 ft 406 kts 248°
2026-04-29 17:45 49.69667 25.36554 25641 ft 400 kts 249°
2026-04-29 17:45 49.68485 25.32760 25431 ft 390 kts 248°
2026-04-29 17:45 49.67313 25.28997 24972 ft 388 kts 248°
2026-04-29 17:45 49.66157 25.25283 24430 ft 387 kts 248°
2026-04-29 17:46 49.64999 25.21562 24006 ft 383 kts 248°
2026-04-29 17:46 49.63851 25.17884 23555 ft 379 kts 248°
2026-04-29 17:46 49.62803 25.14224 23291 ft 367 kts 254°
2026-04-29 17:46 49.62128 25.10471 22713 ft 361 kts 266°
2026-04-29 17:47 49.61977 25.06699 22294 ft 350 kts 276°
2026-04-29 17:47 49.62204 25.03025 21866 ft 342 kts 283°
2026-04-29 17:47 49.62692 24.99517 21372 ft 337 kts 290°
2026-04-29 17:47 49.63466 24.96111 20836 ft 334 kts 295°
2026-04-29 17:48 49.64367 24.92880 20420 ft 329 kts 297°
2026-04-29 17:48 49.65312 24.89691 19905 ft 328 kts 298°
2026-04-29 17:48 49.66262 24.86495 19393 ft 326 kts 297°
2026-04-29 17:48 49.67180 24.83351 19010 ft 321 kts 297°
2026-04-29 17:49 49.68087 24.80200 18504 ft 320 kts 296°
2026-04-29 17:49 49.68973 24.77081 18046 ft 317 kts 296°
2026-04-29 17:49 49.69838 24.74005 17559 ft 316 kts 295°
2026-04-29 17:49 49.70706 24.70894 17114 ft 313 kts 295°
2026-04-29 17:50 49.71553 24.67843 16637 ft 311 kts 295°
2026-04-29 17:50 49.72406 24.64765 16177 ft 309 kts 295°
2026-04-29 17:50 49.73247 24.61725 15706 ft 308 kts 295°
2026-04-29 17:50 49.74077 24.58724 15276 ft 305 kts 294°
2026-04-29 17:51 49.74903 24.55730 14808 ft 304 kts 294°
2026-04-29 17:51 49.75735 24.52713 14372 ft 302 kts 294°
2026-04-29 17:51 49.76551 24.49751 13924 ft 300 kts 294°
2026-04-29 17:51 49.77361 24.46806 13467 ft 299 kts 294°
2026-04-29 17:52 49.78170 24.43861 13025 ft 298 kts 294°
2026-04-29 17:52 49.78704 24.41914 12717 ft 297 kts 294°
2026-04-29 17:52 49.79758 24.38069 12255 ft 284 kts 294°
2026-04-29 17:52 49.80514 24.35305 11854 ft 274 kts 294°
2026-04-29 17:53 49.81245 24.32634 11484 ft 264 kts 294°
2026-04-29 17:53 49.82085 24.30193 11169 ft 252 kts 307°
2026-04-29 17:53 49.83236 24.28221 10808 ft 244 kts 317°
2026-04-29 17:53 49.84379 24.26367 10506 ft 237 kts 303°
2026-04-29 17:54 49.84915 24.23918 10204 ft 248 kts 272°
2026-04-29 17:54 49.84601 24.21301 9908 ft 249 kts 248°
2026-04-29 17:54 49.83702 24.19044 9640 ft 247 kts 231°
2026-04-29 17:54 49.82505 24.17198 9419 ft 246 kts 213°
2026-04-29 17:55 49.80850 24.16377 9150 ft 254 kts 180°
2026-04-29 17:55 49.79132 24.16875 8845 ft 251 kts 154°
2026-04-29 17:55 49.77675 24.18286 8542 ft 248 kts 136°
2026-04-29 17:55 49.76512 24.20201 8251 ft 245 kts 128°
2026-04-29 17:56 49.75395 24.22169 7947 ft 245 kts 131°
2026-04-29 17:56 49.74196 24.24058 7650 ft 244 kts 133°
2026-04-29 17:56 49.72992 24.25847 7357 ft 243 kts 134°
2026-04-29 17:56 49.71777 24.27633 7068 ft 242 kts 134°
2026-04-29 17:57 49.70567 24.29421 6767 ft 241 kts 133°
2026-04-29 17:57 49.69351 24.31224 6469 ft 240 kts 134°
2026-04-29 17:57 49.68047 24.32824 6154 ft 242 kts 148°
2026-04-29 17:57 49.67007 24.33423 5968 ft 244 kts 170°
2026-04-29 17:58 49.64824 24.32805 5602 ft 243 kts 210°
2026-04-29 17:58 49.63501 24.31220 5314 ft 241 kts 226°
2026-04-29 17:58 49.62423 24.29248 5006 ft 239 kts 243°
2026-04-29 17:58 49.61961 24.26849 4728 ft 231 kts 274°
2026-04-29 17:59 49.62281 24.24490 4473 ft 229 kts 297°
2026-04-29 17:59 49.63115 24.22409 4176 ft 224 kts 316°
2026-04-29 17:59 49.64211 24.20766 4038 ft 215 kts 321°
2026-04-29 17:59 49.65281 24.19235 3918 ft 208 kts 320°
2026-04-29 18:00 49.66302 24.17714 3793 ft 199 kts 320°
2026-04-29 18:00 49.67278 24.16258 3624 ft 194 kts 320°
2026-04-29 18:00 49.68239 24.14833 3419 ft 191 kts 321°
2026-04-29 18:00 49.69184 24.13431 3215 ft 185 kts 321°
2026-04-29 18:01 49.70096 24.12073 3030 ft 179 kts 321°
2026-04-29 18:01 49.70973 24.10764 2917 ft 169 kts 321°
2026-04-29 18:01 49.71790 24.09548 2938 ft 163 kts 322°
2026-04-29 18:01 49.72611 24.08331 2928 ft 160 kts 322°
2026-04-29 18:02 49.73371 24.07188 2980 ft 148 kts 322°
2026-04-29 18:02 49.74133 24.06062 2851 ft 155 kts 322°
2026-04-29 18:02 49.74886 24.04933 2516 ft 147 kts 322°
2026-04-29 18:02 49.75588 24.03881 2320 ft 136 kts 322°
2026-04-29 18:03 49.76264 24.02880 2144 ft 135 kts 322°
2026-04-29 18:03 49.76934 24.01879 1959 ft 133 kts 322°
2026-04-29 18:03 49.77601 24.00876 1767 ft 133 kts 322°
2026-04-29 18:03 49.78274 23.99881 1575 ft 135 kts 321°
2026-04-29 18:04 49.78944 23.98888 1373 ft 135 kts 321°
2026-04-29 18:04 49.79631 23.97858 1165 ft 137 kts 319°
2026-04-29 18:04 49.80306 23.96831 1053 ft 131 kts 317°
2026-04-29 18:04 49.80767 23.96153 1048 ft 53 kts 315°
2026-04-29 18:05 49.80912 23.95933 1049 ft 25 kts 315°
2026-04-29 18:05 49.81040 23.95738 1052 ft 25 kts 315°
2026-04-29 18:05 49.81144 23.95581 1056 ft 14 kts 317°
2026-04-29 18:05 49.81197 23.95537 1056 ft 4 kts 359°
2026-04-29 18:06 49.81229 23.95564 1056 ft 6 kts 43°
2026-04-29 18:06 49.81262 23.95617 1056 ft 7 kts 47°
2026-04-29 18:06 49.81293 23.95681 1055 ft 7 kts 75°
2026-04-29 18:06 49.81262 23.95751 1054 ft 9 kts 141°
2026-04-29 18:07 49.81228 23.95817 1053 ft 4 kts 96°
2026-04-29 18:07 49.81244 23.95867 1052 ft 6 kts 46°
2026-04-29 18:07 49.81269 23.95908 1051 ft 0 kts 46°